[[{"header":{"parameterUnit":"m.s-1","parameterCategory":1,"la1":30.2991,"la2":30.254,"lo1":-89.0895,"lo2":-89.0444,"dy":0.0017,"dx":0.0017,"nx":28,"ny":28,"refTime":"2024-05-20T03:00:00:Z","depth":0,"parameterNumber":2,"parameterNumberName":"U-component_of_WINDS"},"data":[0,0,0,0,0,0,0,0,0,0,0,0,0,0,0,0,0,0,0,0,0,0,0,0,0,0,0,0,0,0,0,0,0,0,0,0,0,0,0,0,0,0,0,0,0,0,0,0,0,0,0,0,0,0,0,0,0,0,-3.8853,-3.8854,0,-3.893,-3.8931,-3.8932,-3.8884,-3.8882,-3.8879,-3.8877,-3.896,-3.8964,-3.8969,0,0,0,0,0,0,0,0,0,0,0,0,0,-3.8672,-3.8675,-3.8853,-3.8854,-3.8855,-3.893,-3.8931,-3.8932,-3.8884,-3.8882,-3.8879,-3.8876,-3.8959,-3.8964,-3.8969,0,0,0,0,0,0,0,0,0,0,0,0,0,-3.875,-3.8676,-3.8853,-3.884,-3.884,-3.893,-3.8931,-3.8933,-3.8885,-3.8881,-3.8878,-3.8875,-3.8957,-3.8963,-3.897,-3.9078,0,0,-3.899,-3.8992,0,0,0,0,0,0,0,0,-3.8745,-3.8757,-3.8841,-3.8841,-3.8841,-3.8894,-3.8897,-3.8982,-3.8886,-3.8868,-3.8877,-3.8873,-3.8941,-3.8949,-3.8971,-3.9082,-3.9086,-3.899,-3.8994,-3.8997,-3.8999,0,0,0,0,0,0,0,-3.874,-3.8753,-3.8884,-3.8843,-3.8842,-3.8833,-3.884,-3.8913,-3.8923,-3.8869,-3.8866,-3.8875,-3.894,-3.8965,-3.8972,-3.9087,-3.899,-3.8996,-3.9,-3.9002,-3.9294,-3.9298,0,0,0,0,0,0,-3.8735,-3.8749,-3.8881,-3.8886,-3.8784,-3.8839,-3.8847,-3.888,-3.8922,-3.8925,-3.8878,-3.8873,-3.8955,-3.8965,-3.8975,-3.9105,-3.8997,-3.9003,-3.9007,-3.929,-3.9295,-3.9299,0,0,0,0,0,0,-3.8731,-3.8747,-3.8878,-3.8817,-3.8833,-3.8846,-3.8884,-3.8884,-3.8908,-3.8929,-3.8931,-3.8901,-3.8953,-3.8966,-3.9053,-3.9108,-3.9006,-3.9012,-3.9286,-3.9292,-3.9297,-3.9367,0,0,0,0,0,0,-3.8726,-3.8746,-3.8785,-3.8818,-3.8836,-3.8953,-3.8887,-3.8888,-3.8919,-3.8912,-3.895,-3.8953,-3.8951,-3.9044,-3.906,-3.9115,-3.9017,-3.9281,-3.9288,-3.9295,-3.936,-3.9374,-3.9387,0,0,0,0,0,-3.872,-3.8802,-3.8788,-3.8804,-3.8885,-3.8956,-3.8967,-3.8961,-3.8923,-3.8964,-3.8978,-3.8952,-3.91,-3.9053,-3.9071,-3.9128,-3.9277,-3.9286,-3.9295,-3.9353,-3.9371,-3.9386,0,0,0,0,0,0,-3.8777,-3.8806,-3.879,-3.8885,-3.8919,-3.8948,-3.8999,-3.898,-3.9026,-3.9018,-3.9012,-3.9021,-3.9112,-3.9129,-3.9077,-3.9237,-3.9183,-3.9195,-3.9222,-3.9239,-3.9252,-3.9245,-3.9022,0,0,0,0,0,-3.88,-3.8854,-3.8878,-3.8959,-3.8977,-3.8986,-3.9016,-3.901,-3.9044,-3.9058,-3.9079,-3.9115,-3.917,-3.9206,-3.9257,-3.9363,-3.9372,-3.9412,-3.9426,-3.9437,-3.9447,-3.9506,-3.9525,-3.9328,-3.9327,-3.9327,0,0,-3.8849,-3.8872,-3.8906,-3.8972,-3.8996,-3.9054,-3.8997,-3.906,-3.9103,-3.9068,-3.9151,-3.9168,-3.9209,-3.9306,-3.935,-3.9323,-3.9504,-3.9448,-3.9456,-3.9461,-3.9517,-3.9536,-3.9553,-3.9333,-3.9332,-3.9331,0,0,-3.8968,-3.899,-3.9061,-3.9088,-3.9127,-3.9132,-3.915,-3.9183,-3.9193,-3.9276,-3.9252,-3.9305,-3.9398,-3.9429,-3.9456,-3.9591,-3.9569,-3.9609,-3.9678,-3.9736,-3.9752,-3.9766,-3.9814,-3.9832,-3.9619,-3.962,-3.962,0,-3.9024,-3.9107,-3.9101,-3.9166,-3.9196,-3.9167,-3.9241,-3.9268,-3.9322,-3.9345,-3.9314,-3.9433,-3.9458,-3.9563,-3.9596,-3.962,-3.9641,-3.9603,-3.975,-3.9764,-3.9777,-3.9823,-3.9841,-3.9624,-3.9624,-3.9623,-3.9623,0,-3.9175,-3.9234,-3.9288,-3.9339,-3.9376,-3.9445,-3.9451,-3.949,-3.9482,-3.9492,-3.9579,-3.9609,-3.9667,-3.9692,-3.9684,-3.9797,-3.978,-3.975,-3.9695,-3.98,-3.9843,-3.9861,-3.963,-3.9629,-3.9627,-3.9626,0,0,-3.9327,-3.9377,-3.9397,-3.9421,-3.9464,-3.951,-3.958,-3.9636,-3.9669,-3.971,-3.9768,-3.9851,-3.9825,-3.9856,-3.9853,-3.9904,-4.001,-3.9869,-3.9869,-3.9893,-4.0138,-4.0158,-4.0178,-3.9997,-4.0001,-4.0003,-4.0134,0,-3.9448,-3.9566,-3.9564,-3.9676,-3.9731,-3.9707,-3.9768,-3.9803,-3.9815,-3.9866,-3.9881,-3.9939,-3.99,-3.9919,-3.9969,-3.9986,-4.0059,-3.9977,-4.0053,-4.0056,-4.0042,-4.0201,-4.0222,-4.0344,-4.0151,-4.0154,-4.0156,0,-3.9603,-3.9647,-3.9764,-3.98,-3.9824,-3.9878,-3.993,-3.9979,-4.0019,-4.0025,-4.0062,-4.0052,-4.0125,-4.0071,-4.0173,-4.0118,-4.015,-4.0164,-4.0168,-4.0173,-4.011,-4.021,-4.0382,-4.04,-4.0182,-4.018,-4.0178,0,-3.9702,-3.9791,-3.9873,-3.9894,-3.9939,-3.9978,-4.0,-4.0036,-4.0071,-4.0118,-4.0141,-4.0197,-4.0227,-4.0272,-4.0278,-4.0237,-4.0382,-4.0327,-4.039,-4.039,-4.0419,-4.0416,-4.0598,-4.0442,-4.0442,-4.0442,-4.0441,0,-3.9835,-3.9907,-3.9918,-3.9968,-4.0049,-4.0048,-4.013,-4.0148,-4.0181,-4.0236,-4.0221,-4.0273,-4.0279,-4.0334,-4.034,-4.0425,-4.0439,-4.0447,-4.0447,-4.0447,-4.0446,-4.0466,-4.0457,-4.0446,-4.0445,-4.0444,-4.0444,0,-3.9958,-3.9967,-4.0055,-4.0091,-4.0102,-4.0161,-4.0193,-4.0242,-4.0255,-4.0325,-4.0341,-4.0362,-4.0426,-4.0437,-4.0514,-4.0518,-4.0619,-4.0612,-4.0605,-4.0603,-4.0665,-4.0659,-4.0864,-4.0892,-4.072,-4.0721,-4.0723,0,-4.0041,-4.0096,-4.0139,-4.0174,-4.0196,-4.0253,-4.0289,-4.0292,-4.033,-4.0382,-4.0426,-4.0488,-4.0538,-4.0643,-4.0666,-4.0725,-4.0718,-4.0787,-4.0727,-4.0726,-4.0719,-4.0715,-4.0721,-4.0797,-4.0799,-4.08,-4.0802,0,-4.0188,-4.0191,-4.0241,-4.0295,-4.0338,-4.0381,-4.0422,-4.0452,-4.0461,-4.0506,-4.0571,-4.061,-4.0688,-4.0751,-4.0811,-4.0835,-4.0821,-4.0821,-4.0838,-4.0838,-4.0831,-4.0835,-4.0634,-4.0815,-4.0814,-4.0813,-4.0812,-4.0812,-4.0293,-4.0341,-4.0379,-4.0437,-4.0468,-4.0508,-4.0556,-4.0575,-4.0629,-4.0692,-4.0692,-4.0764,-4.0806,-4.0885,-4.0913,-4.0971,-4.095,-4.0975,-4.0981,-4.0987,-4.0993,-4.0824,-4.0983,-4.0982,-4.0982,-4.0982,-4.0981,0,-4.0438,-4.0462,-4.0516,-4.0573,-4.062,-4.0603,-4.0648,-4.0688,-4.0751,-4.0792,-4.0841,-4.0918,-4.098,-4.101,-4.1072,-4.1113,-4.1108,-4.1129,-4.1125,-4.1131,-4.1009,-4.0987,-4.1132,-4.1132,-4.1132,-4.1132,-4.1132,-4.1132,-4.0519,-4.06,-4.0609,-4.0707,-4.0731,-4.08,-4.0827,-4.0865,-4.0897,-4.0982,-4.1034,-4.1052,-4.1089,-4.1154,-4.1212,-4.1219,-4.1242,-4.1266,-4.1271,-4.1155,-4.114,-4.1125,-4.1104,-4.1272,-4.1272,-4.1388,-4.1389,-4.139]},{"header":{"parameterUnit":"m.s-1","parameterCategory":1,"la1":30.2991,"la2":30.254,"lo1":-89.0895,"lo2":-89.0444,"dy":0.0017,"dx":0.0017,"nx":28,"ny":28,"refTime":"2024-05-20T03:00:00:Z","depth":0,"parameterNumber":3,"parameterNumberName":"V-component_of_WINDS"},"data":[0,0,0,0,0,0,0,0,0,0,0,0,0,0,0,0,0,0,0,0,0,0,0,0,0,0,0,0,0,0,0,0,0,0,0,0,0,0,0,0,0,0,0,0,0,0,0,0,0,0,0,0,0,0,0,0,0,0,2.4037,2.4038,0,2.4104,2.4104,2.4105,2.4209,2.4211,2.4213,2.4215,2.4279,2.4279,2.4279,0,0,0,0,0,0,0,0,0,0,0,0,0,2.3997,2.3997,2.4037,2.4038,2.4039,2.4104,2.4104,2.4105,2.4209,2.4211,2.4214,2.4216,2.4279,2.4279,2.4279,0,0,0,0,0,0,0,0,0,0,0,0,0,2.4034,2.3997,2.4037,2.4098,2.4104,2.4103,2.4105,2.4106,2.4208,2.4211,2.4214,2.4217,2.4279,2.4279,2.4279,2.4222,0,0,2.4278,2.4278,0,0,0,0,0,0,0,0,2.4031,2.4035,2.4088,2.4094,2.4101,2.4151,2.4114,2.4144,2.4208,2.4169,2.4215,2.4218,2.4234,2.4238,2.4244,2.4225,2.4227,2.4278,2.4278,2.4278,2.4278,0,0,0,0,0,0,0,2.4029,2.4033,2.4063,2.4089,2.4097,2.4122,2.413,2.412,2.4184,2.4172,2.418,2.4187,2.4238,2.4244,2.4246,2.4228,2.4278,2.4278,2.4278,2.4278,2.4166,2.4164,0,0,0,0,0,0,2.4017,2.403,2.4061,2.4065,2.4073,2.412,2.4129,2.4132,2.4185,2.4196,2.4184,2.4191,2.4242,2.4246,2.4249,2.4185,2.4278,2.4278,2.4278,2.4169,2.4166,2.4163,0,0,0,0,0,0,2.4016,2.4019,2.4058,2.405,2.4057,2.4118,2.412,2.4132,2.4138,2.4194,2.4206,2.4179,2.4245,2.4249,2.4228,2.4189,2.4278,2.4278,2.4173,2.4168,2.4164,2.4058,0,0,0,0,0,0,2.4015,2.4018,2.3998,2.4049,2.4057,2.4037,2.4118,2.4131,2.4138,2.4148,2.4192,2.4202,2.4247,2.4228,2.4228,2.419,2.4278,2.4176,2.4171,2.4166,2.4065,2.405,2.4038,0,0,0,0,0,2.4013,2.3964,2.3996,2.3999,2.4032,2.4035,2.4039,2.4094,2.4134,2.4114,2.415,2.42,2.4194,2.4225,2.4226,2.4188,2.4179,2.4172,2.4166,2.4071,2.4053,2.4038,0,0,0,0,0,0,2.3905,2.3972,2.4008,2.3974,2.3998,2.4052,2.4028,2.4073,2.4085,2.4093,2.416,2.4169,2.4139,2.4162,2.4195,2.4136,2.4194,2.4187,2.4122,2.4105,2.4092,2.4086,2.4278,0,0,0,0,0,2.3878,2.3875,2.3933,2.3898,2.3908,2.3966,2.3969,2.4009,2.4036,2.4046,2.4081,2.4104,2.4107,2.4108,2.4114,2.407,2.408,2.4044,2.403,2.4019,2.4012,2.399,2.3974,2.4141,2.4141,2.4141,0,0,2.382,2.3857,2.3851,2.3877,2.3901,2.3895,2.3973,2.3964,2.3961,2.4044,2.4027,2.4053,2.4084,2.4051,2.4038,2.4069,2.3969,2.4011,2.4001,2.4,2.3982,2.3966,2.3952,2.4136,2.4137,2.4138,0,0,2.3713,2.3741,2.3715,2.3737,2.3772,2.3811,2.3804,2.3852,2.3873,2.3858,2.392,2.3917,2.3921,2.394,2.395,2.3852,2.3898,2.3852,2.378,2.3758,2.3745,2.3733,2.3697,2.3684,2.3845,2.3845,2.3845,0,2.3637,2.3633,2.3695,2.3683,2.3692,2.377,2.3743,2.3761,2.3795,2.38,2.3835,2.3842,2.3868,2.3841,2.3817,2.3823,2.3817,2.3846,2.3742,2.3731,2.3721,2.3688,2.3674,2.3839,2.384,2.384,2.3841,0,2.3538,2.3534,2.3508,2.3541,2.3548,2.3528,2.3587,2.3586,2.3627,2.3661,2.3644,2.3678,2.3693,2.369,2.3728,2.3668,2.3686,2.373,2.379,2.3699,2.3668,2.3656,2.3831,2.3833,2.3834,2.3836,0,0,2.3362,2.3431,2.3421,2.3437,2.3482,2.348,2.3464,2.348,2.3477,2.3499,2.3486,2.3489,2.3531,2.3542,2.3584,2.3565,2.3484,2.3612,2.3613,2.3586,2.3419,2.3384,2.3368,2.3516,2.3514,2.3512,2.3416,0,2.3263,2.3241,2.3297,2.326,2.3257,2.3331,2.3317,2.3343,2.3375,2.3377,2.3413,2.3413,2.3469,2.3476,2.3461,2.3497,2.3451,2.3505,2.3503,2.3503,2.3492,2.3353,2.3316,2.3223,2.3405,2.3403,2.3401,0,2.3144,2.3161,2.3124,2.3172,2.3173,2.316,2.3179,2.318,2.321,2.3236,2.3249,2.3299,2.3285,2.3344,2.3327,2.3362,2.3365,2.3383,2.3381,2.3381,2.3445,2.3348,2.3195,2.3181,2.3383,2.3385,2.3386,0,2.3019,2.3033,2.3013,2.3024,2.308,2.3069,2.3091,2.3125,2.3131,2.3148,2.3152,2.3166,2.3174,2.3183,2.3235,2.3273,2.321,2.3274,2.323,2.3228,2.3212,2.3212,2.3056,2.3216,2.3216,2.3216,2.3216,0,2.2901,2.2875,2.2957,2.2944,2.2918,2.2982,2.2954,2.2984,2.3013,2.3007,2.3072,2.3065,2.3134,2.3134,2.3174,2.3153,2.3156,2.3175,2.3186,2.3169,2.3166,2.317,2.3177,2.3213,2.3213,2.3214,2.3215,0,2.2756,2.281,2.2793,2.2848,2.2861,2.2838,2.2885,2.2875,2.2913,2.2904,2.2906,2.2964,2.2968,2.3021,2.3035,2.3063,2.3025,2.3048,2.3014,2.3021,2.2974,2.2977,2.2814,2.2795,2.2968,2.2966,2.2965,0,2.2677,2.2659,2.2713,2.2714,2.2734,2.2735,2.2742,2.2805,2.281,2.2844,2.283,2.2839,2.2849,2.2851,2.2894,2.2906,2.2929,2.2871,2.2931,2.2914,2.2927,2.2926,2.2925,2.2857,2.2855,2.2854,2.2852,0,2.253,2.2558,2.2567,2.2584,2.2592,2.2608,2.2629,2.2626,2.2696,2.2697,2.2702,2.2711,2.2727,2.2734,2.2754,2.2776,2.2824,2.2833,2.2824,2.2805,2.2786,2.2794,2.2978,2.2836,2.2838,2.2839,2.284,2.2841,2.2415,2.2403,2.2439,2.2446,2.2469,2.2487,2.2481,2.2518,2.2524,2.2543,2.258,2.2579,2.2611,2.2642,2.266,2.266,2.2689,2.2675,2.2672,2.2667,2.2657,2.2787,2.2664,2.2664,2.2665,2.2665,2.2666,0,2.2271,2.2299,2.2305,2.2333,2.2338,2.2386,2.2412,2.2413,2.2412,2.2438,2.2448,2.2453,2.2462,2.2506,2.2519,2.251,2.2533,2.2511,2.2512,2.2516,2.263,2.2637,2.2493,2.2493,2.2493,2.2493,2.2493,2.2493,2.2197,2.2179,2.2211,2.2204,2.2232,2.2233,2.2243,2.226,2.2281,2.2285,2.2293,2.2323,2.2356,2.2372,2.2381,2.2394,2.2395,2.2366,2.2386,2.2491,2.2508,2.2524,2.253,2.2366,2.2366,2.2271,2.2271,2.227]}]]